[[{"header":{"parameterUnit":"m.s-1","parameterCategory":1,"la1":30.2991,"la2":30.254,"lo1":-89.0895,"lo2":-89.0444,"dx":0.0017,"dy":0.0017,"nx":28,"ny":28,"refTime":"2022-12-24T09:00:00:Z","depth":0,"parameterNumber":2,"parameterNumberName":"U-component_of_WINDS"},"data":[0,0,0,0,0,0,0,0,0,0,0,0,0,0,0,0,0,0,0,0,0,0,0,0,0,0,0,0,0,0,0,0,0,0,0,0,0,0,0,0,0,0,0,0,0,0,0,0,0,0,0,0,0,0,0,0,0,0,1.3592,1.3593,0,1.3595,1.3595,1.3595,1.3585,1.3585,1.3585,1.3584,1.3585,1.3585,1.3585,0,0,0,0,0,0,0,0,0,0,0,0,0,1.3579,1.358,1.3592,1.3593,1.3593,1.3595,1.3595,1.3595,1.3585,1.3585,1.3584,1.3584,1.3585,1.3585,1.3586,0,0,0,0,0,0,0,0,0,0,0,0,0,1.3584,1.358,1.3592,1.3588,1.3588,1.3595,1.3595,1.3595,1.3585,1.3585,1.3584,1.3584,1.3585,1.3585,1.3586,1.3596,0,0,1.3587,1.3587,0,0,0,0,0,0,0,0,1.3583,1.3584,1.3589,1.3588,1.3588,1.3589,1.359,1.3595,1.3585,1.3586,1.3584,1.3584,1.3587,1.3587,1.3588,1.3597,1.3597,1.3587,1.3587,1.3587,1.3587,0,0,0,0,0,0,0,1.3583,1.3584,1.3593,1.3589,1.3588,1.3586,1.3586,1.3591,1.3589,1.3586,1.3585,1.3586,1.3586,1.3588,1.3588,1.3597,1.3587,1.3587,1.3587,1.3588,1.3615,1.3615,0,0,0,0,0,0,1.3584,1.3584,1.3593,1.3593,1.3585,1.3586,1.3587,1.3589,1.3589,1.3588,1.3586,1.3585,1.3587,1.3588,1.3588,1.3601,1.3587,1.3588,1.3588,1.3615,1.3615,1.3616,0,0,0,0,0,0,1.3583,1.3585,1.3593,1.3588,1.3589,1.3587,1.359,1.359,1.3591,1.3589,1.3588,1.3588,1.3587,1.3587,1.3595,1.3601,1.3588,1.3588,1.3614,1.3615,1.3615,1.3627,0,0,0,0,0,0,1.3583,1.3585,1.3589,1.3589,1.359,1.36,1.3591,1.359,1.3592,1.3591,1.359,1.359,1.3587,1.3594,1.3595,1.3601,1.3589,1.3613,1.3614,1.3615,1.3626,1.3628,1.363,0,0,0,0,0,1.3583,1.3591,1.3589,1.359,1.3595,1.36,1.3601,1.3597,1.3592,1.3596,1.3595,1.359,1.3601,1.3595,1.3596,1.3602,1.3613,1.3614,1.3615,1.3625,1.3628,1.363,0,0,0,0,0,0,1.3591,1.3591,1.3588,1.3597,1.3599,1.3599,1.3603,1.36,1.3603,1.3601,1.3597,1.3597,1.3605,1.3605,1.3599,1.3613,1.3606,1.3607,1.3613,1.3615,1.3617,1.3617,1.3589,0,0,0,0,0,1.3594,1.3599,1.3599,1.3606,1.3608,1.3606,1.3608,1.3605,1.3607,1.3607,1.3606,1.3607,1.3611,1.3613,1.3617,1.3626,1.3626,1.3631,1.3633,1.3635,1.3636,1.3641,1.3644,1.3619,1.3619,1.3619,0,0,1.36,1.3601,1.3604,1.3608,1.3609,1.3614,1.3606,1.3611,1.3615,1.3608,1.3614,1.3614,1.3615,1.3624,1.3628,1.3624,1.3643,1.3636,1.3637,1.3637,1.3643,1.3645,1.3647,1.362,1.362,1.362,0,0,1.3613,1.3614,1.3621,1.3623,1.3625,1.3624,1.3626,1.3626,1.3626,1.3633,1.3628,1.3632,1.3639,1.364,1.3641,1.3657,1.3652,1.3658,1.3667,1.3673,1.3675,1.3676,1.3682,1.3684,1.3659,1.3659,1.3659,0,1.3619,1.3627,1.3625,1.3631,1.3633,1.3628,1.3635,1.3637,1.364,1.3641,1.3637,1.3646,1.3646,1.3655,1.3659,1.3661,1.3663,1.3657,1.3675,1.3676,1.3678,1.3683,1.3685,1.366,1.366,1.366,1.366,0,1.3635,1.3641,1.3646,1.365,1.3653,1.3659,1.3658,1.3662,1.366,1.3659,1.3667,1.3668,1.3671,1.3673,1.3671,1.3683,1.368,1.3676,1.3668,1.3681,1.3686,1.3688,1.3661,1.3661,1.3661,1.366,0,0,1.3651,1.3656,1.3658,1.366,1.3662,1.3666,1.3673,1.3678,1.3681,1.3683,1.3689,1.3695,1.3691,1.3693,1.3691,1.3696,1.3709,1.3691,1.3691,1.3694,1.3722,1.3724,1.3727,1.3706,1.3707,1.3707,1.3721,0,1.3664,1.3676,1.3675,1.3686,1.3691,1.3688,1.3694,1.3696,1.3696,1.3701,1.3701,1.3705,1.37,1.3701,1.3706,1.3706,1.3714,1.3705,1.371,1.3711,1.3709,1.3729,1.3732,1.3745,1.3723,1.3724,1.3724,0,1.368,1.3684,1.3696,1.3699,1.3701,1.3707,1.3711,1.3715,1.3718,1.3718,1.3721,1.3719,1.3726,1.3719,1.3728,1.3722,1.3725,1.3725,1.3726,1.3725,1.3717,1.3728,1.3749,1.3751,1.3727,1.3726,1.3726,0,1.369,1.3699,1.3707,1.3709,1.3713,1.3717,1.3719,1.3722,1.3725,1.3729,1.3731,1.3735,1.3738,1.3741,1.374,1.3735,1.375,1.3743,1.375,1.375,1.3752,1.3751,1.3773,1.3755,1.3755,1.3755,1.3755,0,1.3704,1.3711,1.3712,1.3717,1.3725,1.3725,1.3733,1.3734,1.3737,1.3742,1.374,1.3745,1.3743,1.3748,1.3748,1.3756,1.3757,1.3757,1.3756,1.3756,1.3756,1.3757,1.3755,1.3755,1.3755,1.3755,1.3755,0,1.3716,1.3717,1.3726,1.373,1.3731,1.3737,1.374,1.3745,1.3746,1.3752,1.3754,1.3755,1.3761,1.376,1.3767,1.3766,1.3776,1.3775,1.3775,1.3774,1.3781,1.378,1.3803,1.3805,1.3787,1.3787,1.3787,0,1.3724,1.3729,1.3734,1.3738,1.374,1.3746,1.375,1.375,1.3754,1.3759,1.3763,1.3769,1.3773,1.3783,1.3784,1.3789,1.3787,1.3795,1.3788,1.3788,1.3787,1.3786,1.3787,1.3796,1.3796,1.3796,1.3796,0,1.3738,1.3739,1.3744,1.375,1.3755,1.3759,1.3763,1.3766,1.3767,1.3772,1.3778,1.3782,1.3789,1.3795,1.38,1.3802,1.3799,1.3799,1.3801,1.38,1.38,1.38,1.3778,1.3798,1.3798,1.3798,1.3798,1.3798,1.3748,1.3753,1.3757,1.3764,1.3767,1.3772,1.3777,1.3779,1.3784,1.3791,1.3791,1.3798,1.3802,1.3809,1.3811,1.3817,1.3814,1.3816,1.3817,1.3817,1.3818,1.38,1.3818,1.3818,1.3817,1.3817,1.3817,0,1.3761,1.3764,1.377,1.3777,1.3782,1.3781,1.3786,1.379,1.3797,1.3801,1.3806,1.3814,1.382,1.3822,1.3828,1.3832,1.3831,1.3833,1.3833,1.3833,1.382,1.3818,1.3834,1.3834,1.3834,1.3834,1.3834,1.3834,1.3769,1.3777,1.3779,1.379,1.3793,1.38,1.3803,1.3807,1.3811,1.382,1.3825,1.3827,1.3831,1.3837,1.3843,1.3843,1.3845,1.3848,1.3848,1.3836,1.3834,1.3832,1.383,1.3849,1.3849,1.3861,1.3861,1.3861]},{"header":{"parameterUnit":"m.s-1","parameterCategory":1,"la1":30.2991,"la2":30.254,"lo1":-89.0895,"lo2":-89.0444,"dx":0.0017,"dy":0.0017,"nx":28,"ny":28,"refTime":"2022-12-24T09:00:00:Z","depth":0,"parameterNumber":3,"parameterNumberName":"V-component_of_WINDS"},"data":[0,0,0,0,0,0,0,0,0,0,0,0,0,0,0,0,0,0,0,0,0,0,0,0,0,0,0,0,0,0,0,0,0,0,0,0,0,0,0,0,0,0,0,0,0,0,0,0,0,0,0,0,0,0,0,0,0,0,-5.2701,-5.2703,0,-5.2847,-5.2849,-5.285,-5.2797,-5.2794,-5.2791,-5.2788,-5.2933,-5.294,-5.2947,0,0,0,0,0,0,0,0,0,0,0,0,0,-5.2374,-5.238,-5.2701,-5.2703,-5.2705,-5.2847,-5.2849,-5.2851,-5.2798,-5.2794,-5.279,-5.2786,-5.2931,-5.2939,-5.2948,0,0,0,0,0,0,0,0,0,0,0,0,0,-5.2517,-5.2382,-5.2701,-5.2696,-5.2697,-5.2846,-5.2849,-5.2851,-5.2799,-5.2794,-5.2789,-5.2784,-5.2928,-5.2939,-5.2949,-5.3111,0,0,-5.2981,-5.2985,0,0,0,0,0,0,0,0,-5.2509,-5.2529,-5.2695,-5.2696,-5.2698,-5.2799,-5.2787,-5.2938,-5.28,-5.276,-5.2788,-5.2782,-5.2892,-5.2905,-5.2943,-5.3118,-5.3124,-5.2982,-5.2988,-5.2992,-5.2995,0,0,0,0,0,0,0,-5.2499,-5.2523,-5.2759,-5.2697,-5.2699,-5.2685,-5.27,-5.2815,-5.2852,-5.2763,-5.276,-5.2778,-5.2892,-5.2934,-5.2946,-5.3126,-5.2981,-5.299,-5.2997,-5.3001,-5.3439,-5.3444,0,0,0,0,0,0,-5.2489,-5.2515,-5.2754,-5.2763,-5.259,-5.2695,-5.2711,-5.2771,-5.285,-5.2858,-5.2782,-5.2775,-5.2918,-5.2934,-5.2951,-5.3145,-5.2992,-5.3002,-5.3008,-5.3433,-5.344,-5.3446,0,0,0,0,0,0,-5.2483,-5.2511,-5.2748,-5.2638,-5.2667,-5.2706,-5.2773,-5.2777,-5.2818,-5.2865,-5.287,-5.2817,-5.2915,-5.2937,-5.3071,-5.3149,-5.3007,-5.3016,-5.3427,-5.3435,-5.3443,-5.3535,0,0,0,0,0,0,-5.2473,-5.2509,-5.2572,-5.264,-5.2673,-5.2868,-5.2778,-5.2783,-5.2836,-5.2829,-5.29,-5.2907,-5.2913,-5.3056,-5.3082,-5.3161,-5.3024,-5.342,-5.3431,-5.344,-5.3525,-5.3545,-5.3562,0,0,0,0,0,-5.2462,-5.2592,-5.2576,-5.2605,-5.2753,-5.2872,-5.2891,-5.2897,-5.2843,-5.2906,-5.2935,-5.2904,-5.3137,-5.3071,-5.3099,-5.3182,-5.3415,-5.3428,-5.344,-5.3516,-5.3541,-5.3562,0,0,0,0,0,0,-5.2532,-5.2601,-5.2583,-5.274,-5.2801,-5.2863,-5.2943,-5.2923,-5.2999,-5.2988,-5.2991,-5.3007,-5.3146,-5.3178,-5.3102,-5.3342,-5.3268,-5.3286,-5.3317,-5.334,-5.3359,-5.3347,-5.3033,0,0,0,0,0,-5.2565,-5.2657,-5.2712,-5.2845,-5.2876,-5.2905,-5.2956,-5.2955,-5.3018,-5.3043,-5.3083,-5.3144,-5.323,-5.3287,-5.3369,-5.3529,-5.3543,-5.3601,-5.3619,-5.3634,-5.365,-5.3735,-5.376,-5.3486,-5.3486,-5.3485,0,0,-5.2636,-5.2685,-5.2743,-5.286,-5.2907,-5.3001,-5.2926,-5.3029,-5.3098,-5.3058,-5.3188,-5.3219,-5.3287,-5.3435,-5.3501,-5.3465,-5.3729,-5.365,-5.3661,-5.3669,-5.375,-5.3776,-5.3799,-5.3494,-5.3492,-5.3491,0,0,-5.2811,-5.2859,-5.2974,-5.3022,-5.3094,-5.3112,-5.3139,-5.3205,-5.3224,-5.3355,-5.3326,-5.3408,-5.3557,-5.3606,-5.3651,-5.3844,-5.3817,-5.3871,-5.3968,-5.405,-5.4072,-5.4091,-5.4158,-5.4183,-5.3886,-5.3887,-5.3887,0,-5.289,-5.3031,-5.3035,-5.314,-5.3191,-5.316,-5.3275,-5.3322,-5.3417,-5.3453,-5.3411,-5.3597,-5.3641,-5.3799,-5.3846,-5.3884,-5.3913,-5.3862,-5.4069,-5.4088,-5.4106,-5.417,-5.4196,-5.3892,-5.3892,-5.3891,-5.3891,0,-5.3122,-5.322,-5.3304,-5.3397,-5.3458,-5.3568,-5.3587,-5.3648,-5.3641,-5.3663,-5.3795,-5.3846,-5.3937,-5.3975,-5.3969,-5.4132,-5.4107,-5.4068,-5.3992,-5.4138,-5.4198,-5.4223,-5.3901,-5.3899,-5.3897,-5.3895,0,0,-5.3346,-5.3439,-5.347,-5.3511,-5.3588,-5.3663,-5.377,-5.386,-5.3912,-5.3978,-5.4067,-5.4194,-5.4157,-5.4208,-5.4208,-5.4281,-5.4428,-5.4232,-5.4233,-5.4265,-5.4608,-5.4636,-5.4665,-5.4411,-5.4416,-5.442,-5.4601,0,-5.3527,-5.3716,-5.3722,-5.3895,-5.3984,-5.3955,-5.4048,-5.4105,-5.4128,-5.4206,-5.423,-5.432,-5.4266,-5.4296,-5.4367,-5.4395,-5.4496,-5.4382,-5.4492,-5.4496,-5.4475,-5.4696,-5.4727,-5.4896,-5.4625,-5.4629,-5.4632,0,-5.3763,-5.3837,-5.4019,-5.4081,-5.4119,-5.4202,-5.4284,-5.436,-5.4423,-5.4434,-5.449,-5.4479,-5.4586,-5.4509,-5.4656,-5.4578,-5.4623,-5.4644,-5.465,-5.466,-5.4572,-5.471,-5.495,-5.4975,-5.4669,-5.4666,-5.4664,0,-5.3906,-5.4051,-5.4178,-5.4214,-5.4291,-5.435,-5.4384,-5.4442,-5.4495,-5.4567,-5.4601,-5.4684,-5.4729,-5.4793,-5.4803,-5.4746,-5.4951,-5.4874,-5.4962,-5.4961,-5.5005,-5.5002,-5.5255,-5.5037,-5.5036,-5.5036,-5.5035,0,-5.4107,-5.4219,-5.4243,-5.4321,-5.4445,-5.445,-5.4572,-5.4601,-5.4653,-5.4735,-5.4715,-5.4792,-5.4802,-5.4881,-5.489,-5.501,-5.5031,-5.5041,-5.5042,-5.5043,-5.5041,-5.5071,-5.5059,-5.5043,-5.5041,-5.504,-5.5039,0,-5.4288,-5.4309,-5.4445,-5.4506,-5.4524,-5.4612,-5.4663,-5.4737,-5.4757,-5.4861,-5.4886,-5.4918,-5.501,-5.5027,-5.5135,-5.5141,-5.5283,-5.5273,-5.5263,-5.5261,-5.5347,-5.5338,-5.5627,-5.5664,-5.5423,-5.5425,-5.5427,0,-5.4414,-5.4499,-5.4569,-5.4623,-5.466,-5.4747,-5.4801,-5.4809,-5.4866,-5.4943,-5.5007,-5.5097,-5.5169,-5.5318,-5.5349,-5.5432,-5.5422,-5.5518,-5.5435,-5.5432,-5.5422,-5.5416,-5.5424,-5.5533,-5.5536,-5.5538,-5.554,0,-5.4634,-5.464,-5.472,-5.4803,-5.4868,-5.4934,-5.4995,-5.504,-5.5056,-5.5121,-5.5215,-5.5272,-5.5382,-5.5471,-5.5553,-5.5587,-5.5566,-5.5566,-5.559,-5.5591,-5.5581,-5.5586,-5.5305,-5.5559,-5.5557,-5.5556,-5.5555,-5.5554,-5.4791,-5.4864,-5.4925,-5.5013,-5.5061,-5.5119,-5.5191,-5.522,-5.5299,-5.539,-5.539,-5.5492,-5.5551,-5.5659,-5.5698,-5.5777,-5.5747,-5.5782,-5.5791,-5.5799,-5.5807,-5.5569,-5.5792,-5.5792,-5.5791,-5.5791,-5.579,0,-5.5009,-5.5046,-5.5128,-5.5215,-5.5284,-5.5259,-5.5326,-5.5385,-5.5476,-5.5533,-5.5605,-5.5712,-5.5798,-5.5836,-5.5921,-5.5977,-5.5969,-5.5998,-5.5994,-5.6001,-5.583,-5.58,-5.6003,-5.6003,-5.6003,-5.6003,-5.6003,-5.6003,-5.5131,-5.5254,-5.5267,-5.5412,-5.5448,-5.5549,-5.5589,-5.5642,-5.5687,-5.5808,-5.588,-5.5904,-5.5953,-5.6041,-5.6118,-5.6127,-5.6158,-5.6192,-5.6196,-5.6035,-5.6014,-5.5993,-5.5965,-5.6199,-5.6199,-5.636,-5.6362,-5.6363]}]]